Location: Wilsall
(45.9940°N, 110.6590°W)
Time: 21:31:13
(UTC-07:00)

Daily predictions for brighter satellites

Satellite Brightness Start Highest point End
(mag) Time Altitude Azimuth Time Altitude Azimuth Time Altitude Azimuth
BREEZE-M DEB (TANK) 2.9 18:25:56 10° WNW 18:28:25 54° NNE 18:33:35 10° E
COSMO-SKYMED 1 2.5 18:27:33 10° NNE 18:31:56 73° ESE 18:36:15 10° S
Thor Agena Rocket 3.8 18:29:28 10° N 18:34:31 72° WNW 18:39:33 10° SSW
Cosmos 1190 Rocket 4.0 18:29:59 10° SSW 18:35:10 76° ESE 18:40:22 10° NNE
ALOS 3.0 18:33:37 10° SE 18:37:45 32° ENE 18:41:55 10° N
FREGAT/IRIS 3.2 18:36:24 10° SE 18:39:16 36° ENE 18:42:10 10° N
Cosmos 1340 3.0 18:36:25 10° N 18:40:05 44° ENE 18:43:43 10° SSE
Cosmos 2181 Rocket 4.2 18:35:31 10° N 18:41:33 49° ENE 18:47:38 10° SSE
Cosmos 2333 Rocket 3.7 18:38:20 10° N 18:42:18 19° NE 18:46:14 10° E
Spot 2 Rocket 4.2 18:39:29 10° SE 18:43:53 31° ENE 18:48:19 10° N
Okean 2 Rocket 3.7 18:39:35 10° SSW 18:43:59 61° W 18:48:23 10° N
SL-16 R/B 3.0 18:38:43 10° NNW 18:44:16 58° WSW 18:49:49 10° S
USA 229 DEB 4.3 18:40:55 10° NNW 18:47:36 41° NE 18:54:21 10° ESE
USA 229 4.3 18:41:01 10° NNW 18:47:41 41° NE 18:54:27 10° ESE
Helios 1B rocket 4.4 18:54:33 12° ESE 18:54:33 12° ESE 18:55:18 10° ESE
Meteor 1-28 Rocket 3.4 18:50:15 10° N 18:54:04 77° WNW 18:57:52 10° SSW
Tiangong 2 3.8 18:52:34 10° WSW 18:54:25 15° SSW 18:56:16 10° S
HJ-1C 3.8 18:54:28 10° SE 18:57:38 39° ENE 19:00:49 10° N
Cosmos 1709 Rocket 3.9 18:52:55 10° S 18:59:03 67° E 19:05:10 10° NNE
Genesis I 3.5 18:55:53 10° NNW 18:59:42 46° NE 19:03:08 12° ESE
Cosmos 2322 Rocket 3.6 18:55:19 10° NW 19:00:33 41° WSW 19:05:47 10° S
SJ-6B 2.7 18:56:57 10° SSE 19:00:55 75° ENE 19:04:51 10° N
Cosmos 1954 Rocket 4.0 18:56:45 10° S 19:01:52 63° ESE 19:07:03 10° NNE
Cosmos 2151 Rocket 3.8 18:58:37 10° SSW 19:03:07 81° W 19:07:40 10° N
FengYun 1-2 T 4.3 18:58:11 10° SSE 19:03:32 57° ENE 19:08:56 10° N
Okean 1 Rocket 3.5 18:59:43 10° SSE 19:03:54 40° E 19:08:06 10° NNE
USA 215 4.2 19:00:46 10° NE 19:06:49 42° NNW 19:12:51 10° W
Meteor 1-19 Rocket 4.2 19:03:46 10° N 19:09:27 72° ENE 19:15:12 10° SSE
FENGYUN 3A 3.6 19:05:13 10° SSE 19:10:33 66° ENE 19:15:57 10° N
TSX-5 3.1 19:08:40 10° SSW 19:11:49 85° ESE 19:15:10 10° NNE
BREEZE-M DEB (TANK) 2.0 19:11:27 10° WNW 19:13:47 75° SSW 19:17:19 16° ESE
Cosmos 1238 Rocket 2.0 19:12:37 10° N 19:15:38 87° W 19:18:35 10° S
Cosmos 2322 3.8 19:11:23 10° NNW 19:17:09 86° WSW 19:22:52 10° SSE
Gbstr 26 Del rocket 3.3 19:14:30 10° SSW 19:18:01 36° SE 19:19:28 26° E
Cosmos 405 Rocket 4.0 19:16:57 10° NNE 19:20:13 22° ENE 19:20:17 22° ENE
Cosmos 1025 Rocket 3.4 19:16:39 10° N 19:20:51 42° ENE 19:25:02 10° SSE
CZ-2D R/B 3.6 19:18:53 14° SE 19:21:55 40° ENE 19:25:31 10° N
GEOS 3 Rocket 3.9 19:20:50 11° NE 19:25:38 48° ESE 19:30:44 10° SSW
Meteor 1-13 Rocket 4.4 19:21:02 10° NNW 19:26:34 74° W 19:32:11 10° S
H-2A R/B 2.6 19:23:21 10° SSE 19:27:00 61° ENE 19:30:44 10° N
Cosmos 2285 Rocket 4.2 19:21:12 10° NNW 19:27:28 51° ENE 19:32:47 14° SE
Okean 1-7 Rocket 3.5 19:23:08 10° N 19:27:41 67° E 19:32:08 10° SSE
Cosmos 1536 2.8 19:24:08 10° S 19:28:02 57° E 19:31:58 10° NNE
Cosmos 1633 3.0 19:27:22 10° SSW 19:31:01 64° W 19:34:42 10° N
COSMOS 2428 2.6 19:26:53 10° NNW 19:32:36 71° ENE 19:37:44 13° SE
Cosmos 2237 4.2 19:27:06 10° NNW 19:32:52 87° ENE 19:38:36 10° SSE
Meteor 1-23 Rocket 4.2 19:27:17 10° N 19:33:07 67° ENE 19:38:50 10° SSE
Cosmos 2333 4.2 19:28:11 10° NNW 19:33:53 64° ENE 19:38:23 17° SE
Meteor 2-4 Rocket 3.6 19:29:41 10° N 19:35:18 84° E 19:40:43 10° SSE
Cosmos 2237 Rocket 3.1 19:31:18 10° N 19:36:18 30° NE 19:37:45 27° ENE
Cosmos 1023 Rocket 4.5 19:32:49 10° SSW 19:37:55 83° WNW 19:43:06 10° NNE
SL-19 R/B 4.4 19:34:39 10° SSE 19:40:21 83° WSW 19:46:29 10° NNW
SL-08 ROCKET BODY 4.4 19:37:06 10° S 19:43:15 72° E 19:49:26 10° NNE
Cosmos 1741 Rocket 3.9 19:40:17 10° S 19:45:28 71° ESE 19:50:41 10° NNE
NOSS 0 Rocket 4.1 19:44:11 10° NNW 19:50:11 51° NE 19:52:27 34° ESE
Cosmos 2360 Rocket 3.4 19:46:02 10° NW 19:51:20 42° WSW 19:56:37 10° S
Cosmos 2219 Rocket 2.2 19:47:45 10° NNW 19:53:18 59° ENE 19:55:22 37° ESE
Cosmos 1763 Rocket 4.4 19:50:25 10° N 19:54:30 29° NE 19:54:30 29° NE
Cosmos 2219 3.1 19:49:45 10° SSW 19:55:27 69° ESE 20:01:11 10° NNE
Cosmos 1570 Rocket 4.5 19:53:29 10° NNW 19:58:39 61° WSW 20:03:47 10° S
Abrixas rocket 4.4 20:01:16 10° SSW 20:02:26 18° SSW 20:02:26 18° SSW
Resurs 01 Rocket 2.7 20:00:54 10° S 20:05:07 45° W 20:09:23 10° NNW
Cosmos 1140 Rocket 4.4 20:03:42 10° SW 20:08:38 47° WNW 20:13:39 10° NNE
SL-16 R/B 3.4 20:05:04 10° N 20:09:14 25° NE 20:09:14 25° NE
Spot 1 4.3 20:10:05 30° S 20:11:59 64° WSW 20:16:07 10° NNW
ALOS 4.1 20:11:05 10° SSW 20:15:11 30° W 20:19:19 10° NNW
Cosmos 468 Rocket 3.8 20:13:42 10° NNW 20:18:58 80° ENE 20:19:38 67° SE
Cosmos 1610 Rocket 4.3 20:12:46 10° S 20:19:00 82° E 20:25:12 10° N
Helios 1A 3.5 20:17:34 31° SSW 20:19:18 57° WSW 20:23:26 10° NNW
SJ-11-01 4.3 20:20:43 67° NE 20:20:43 67° NE 20:25:06 10° N
USA 186 4.3 20:27:24 16° NW 20:27:24 16° NW 20:28:11 10° NNW
Cosmos 2333 Rocket 2.1 20:21:40 10° NNW 20:27:28 86° ENE 20:28:17 67° SE
Helios 1B rocket 3.6 20:25:04 10° N 20:30:52 34° SW 20:33:18 10° SSW
Okean 2 4.4 20:29:43 10° NNW 20:33:42 45° W 20:34:27 40° SW
Cosmos 1980 3.5 20:29:22 10° NNW 20:35:02 80° ENE 20:35:02 80° ENE
Cosmos 1814 Rocket 4.0 20:31:25 10° NNW 20:36:05 71° N 20:36:05 71° N
USA 229 DEB 4.2 20:31:54 10° NW 20:38:53 59° WSW 20:42:02 34° S
Envisat 3.0 20:38:53 78° WSW 20:38:55 78° WSW 20:44:02 10° NNW
USA 229 4.2 20:32:00 10° NW 20:38:59 60° WSW 20:42:06 34° S
ERS-1 Rocket 3.8 20:45:24 42° N 20:45:24 42° N 20:48:47 10° N
Cosmos 1892 Rocket 4.4 20:39:46 10° NNW 20:43:43 47° W 20:43:43 47° W
USA 215 4.3 20:47:08 29° NNE 20:48:55 34° N 20:54:38 10° WNW
NOSS 3-1 (A) 3.9 20:44:16 10° NW 20:51:44 71° NE 20:52:26 68° E
ATLAS 2AS CENTAUR R/B 3.8 20:49:55 10° NW 20:57:18 36° NNE 20:57:44 35° NE
H-2A R/B 4.3 21:05:00 16° N 21:05:00 16° N 21:06:13 10° N
Cosmos 2341 Rocket 4.3 21:11:39 64° NNW 21:11:39 64° NNW 21:17:11 10° N
NOSS 3-1 (C) 3.9 21:03:45 10° NW 21:11:17 79° SW 21:11:49 75° SSW
Cosmos 2237 Rocket 3.1 21:15:07 10° NW 21:19:37 45° WNW 21:19:37 45° WNW
Cosmos 2219 Rocket 4.1 21:32:32 10° NW 21:36:48 23° WSW 21:37:09 23° WSW
SL-16 R/B 4.1 21:48:43 10° NNW 21:51:08 26° NW 21:51:08 26° NW
ATLAS 2AS CENTAUR R/B 4.4 22:41:07 10° NW 22:45:11 33° NW 22:45:11 33° NW
